Weather Roundup
Issued by NWS Chicago, IL

Home | Current Version | Previous Version | Text Only | Print | Product List | Glossary Off
Versions: 1 2 3 4 5 6 7 8 9 10 11 12 13 14 15 16 17 18 19 20 21 22 23 24 25 26 27 28 29 30 31 32 33 34 35 36 37 38 39 40 41 42 43 44 45 46 47 48 49 50

000
NZUS59 KLOT 181608
HRRLOT

CHICAGO AREA WEATHER ROUNDUP
NATIONAL WEATHER SERVICE CHICAGO/ROMEOVILLE IL
1000 AM CST THU JAN 18 2018

NOTE: "FAIR" INDICATES FEW OR NO CLOUDS BELOW 12,000 FEET WITH NO
SIGNIFICANT WEATHER AND/OR OBSTRUCTIONS TO VISIBILITY.

* THESE STATIONS ARE NOT UNDER NWS QUALITY CONTROL. THEY ALSO MAY NOT
  REPORT WEATHER SUCH AS PRECIPITATION OR FOG.

ILZ005-006-012>014-019>023-181700-
NORTHEAST ILLINOIS

CITY           SKY/WX    TMP DP  RH WIND       PRES   REMARKS
OHARE            N/A     22  12  65 SW16G26   30.08F WCI   8
MIDWAY           N/A     24  13  62 SW17G26   30.12F WCI  11
AURORA           N/A     20  12  71 S16G25    30.11F WCI   6
LANSING*         N/A     21  14  73 SW14      30.16F WCI   8
JOLIET*          N/A     23  13  66 SW12      30.16F WCI  11
WAUKEGAN         N/A     25  13  60 W8G18     30.05R WCI  16
DUPAGE AIRPORT   N/A     20  13  74 SW18G26   30.09F WCI   5
WHEELING         N/A     23  12  62 SW18      30.09F WCI   9
KANKAKEE*        N/A     22  11  64 SW13      30.22R WCI  10
MORRIS*          N/A     22  12  66 SW16G23   30.17F WCI   8
LEWIS AIRPORT*   N/A     21  13  70 SW20G25   30.13F WCI   6
NORTHERLY ISL    N/A     23  12  62 SW12        N/A  WCI  12
$$

WIZ051-052-058>065-066-070>072-181700-
SOUTHEAST WISCONSIN

CITY           SKY/WX    TMP DP  RH WIND       PRES   REMARKS
MILWAUKEE      PTSUNNY   24  14  65 W16       30.03R WCI  11
KENOSHA*         N/A     23  13  65 W14G24    30.05R WCI  11
RACINE*          N/A     22  13  68 W12G21    30.05R WCI  10
BURLINGTON       N/A     23  13  64 W13G21    30.05R WCI  11
WAUKESHA       SUNNY     19  10  68 SW16G23   30.04R WCI   5
WEST BEND        N/A     21  14  73 SW9       29.98R WCI  11
$$

INZ001>003-010>013-019-020-181700-
NORTHWEST INDIANA

CITY           SKY/WX    TMP DP  RH WIND       PRES   REMARKS
GARY*          MOSUNNY   23  10  58 SW12G25   30.16S WCI  12
MICHIGAN CITY* NOT AVBL
RENSSELAER*    NOT AVBL
VALPARAISO       N/A     20  12  71 SW17G26   30.17R WCI   5
$$

LMZ740>746-181700-
SOUTHERN LAKE MICHIGAN

STATION/POSITION TIME  SKY/WX   TEMP WIND        PRES    VSBY
                                AIR  DIR/SP/G
                 (UTC)          (F)  (DEG/KT/KT) (MB)    (MI)
HARRISON CRIB    1530            23  220/ 18/ 24   N/A
BURNHAM HARBOR   1600            24  260/ 12/ 18   N/A
CALUMET HARBOR   1548            22  210/ 15/ 24 1019.2F
BURNS HARBOR     1542            20  210/ 15/ 25 1021.3S
MICHIGAN CITY    1540            20  190/ 17/ 20   N/A
$$

ABBREVIATIONS USED IN REMARKS
   TC - TEMPERATURE IN CELSIUS
  WCI - WIND CHILL INDEX
   HX - HEAT INDEX
  VSB - VISIBILITY
$$



USA.gov is the U.S. government's official web portal to all federal, state and local government web resources and services.